Voltar ao catálogo

COSMOS 1359

AtivoNavegaçãoLEO
NORAD 13162·PAYLOAD·🇷🇺 Russia

Lançado May 6, 1982 de Plesetsk Cosmodrome

Loading…

Próximas Passagens (próximas 24 horas)

TLE

AtualizadoSource: Space-Track

Época: Sep 14, 2026, 21:39 UTC

1 13162U 82040C   26257.90265356 -.00000010  00000-0  39430-4 0  9990
2 13162  74.0093 112.2638 0031073 193.0085 187.4310 12.52043211 28815

Acompanhe COSMOS 1359 em tempo real com AllMySat

Download on the App Store